This is the latest recevied weather packets stored in our database for station/object KD0RII. If no packets are shown the sender has not sent any weather packets the latest 10 day(s).
| Time | Temp. | Humidity | Pressure | Rain* | Wind** | Luminosity | Snow |
|---|---|---|---|---|---|---|---|
| 1778101907 | 16.67° C | 38% | 1019.2 hPa | 0 mm | - | 655 W/m² | - |
| 1778101603 | 17.78° C | 35% | 1019.4 hPa | 0 mm | - | 657 W/m² | - |
| 1778101300 | 16.67° C | 40% | 1019.5 hPa | 0 mm | - | 668 W/m² | - |
| 1778100998 | 16.67° C | 37% | 1019.3 hPa | 0 mm | - | 682 W/m² | - |
| 1778100692 | 16.67° C | 35% | 1019.6 hPa | 0 mm | - | 694 W/m² | - |
| 1778100390 | 16.67° C | 38% | 1019.6 hPa | 0 mm | - | 703 W/m² | - |
| 1778100087 | 17.22° C | 38% | 1019.6 hPa | 0 mm | - | 713 W/m² | - |
| 1778099785 | 17.22° C | 38% | 1019.6 hPa | 0 mm | - | 723 W/m² | - |
| 1778099481 | 17.22° C | 40% | 1019.7 hPa | 0 mm | - | 733 W/m² | - |
| 1778099179 | 16.67° C | 38% | 1020 hPa | 0 mm | - | 743 W/m² | - |
| 1778098876 | 16.11° C | 36% | 1019.7 hPa | 0 mm | - | 750 W/m² | - |
| 1778098573 | 16.67° C | 36% | 1019.9 hPa | 0 mm | - | 760 W/m² | - |
| 1778098269 | 16.67° C | 41% | 1020 hPa | 0 mm | - | 769 W/m² | - |
| 1778097966 | 16.67° C | 42% | 1020 hPa | 0 mm | - | 777 W/m² | - |
| 1778097662 | 16.67° C | 39% | 1019.9 hPa | 0 mm | - | 785 W/m² | - |
| 1778097359 | 16.67° C | 42% | 1019.8 hPa | 0 mm | - | 789 W/m² | - |
| 1778097055 | 16.67° C | 42% | 1020 hPa | 0 mm | - | 805 W/m² | - |
| 1778096753 | 16.67° C | 41% | 1020.2 hPa | 0 mm | - | 804 W/m² | - |
| 1778096449 | 16.67° C | 42% | 1019.9 hPa | 0 mm | - | 807 W/m² | - |
| 1778096147 | 16.11° C | 39% | 1020.3 hPa | 0 mm | - | 812 W/m² | - |
| 1778095844 | 16.11° C | 39% | 1020 hPa | 0 mm | - | 817 W/m² | - |
| 1778095541 | 16.11° C | 44% | 1020.3 hPa | 0 mm | - | 821 W/m² | - |
| 1778095237 | 16.67° C | 41% | 1020.2 hPa | 0 mm | - | 826 W/m² | - |
| 1778094934 | 16.11° C | 40% | 1020.3 hPa | 0 mm | - | 828 W/m² | - |
| 1778094630 | 15.56° C | 38% | 1020.4 hPa | 0 mm | - | 832 W/m² | - |
* Rain latest hour (hover to see other rain measurements)
** Current wind speed in m/s (hover to see current wind gust speed)